Content
SEND FEEDBACK

Daily
Averages
Monthly
Summary
United States of America

DEER POINT, IDAHO


Home > North America > United States > Idaho
Elevation: 7160 feet     Latitude: 43 45N     Longitude: 116 06W

WEATHER
 
SELECT A DAY
Number of Records: 184,699;   Date Range: 1/1/95 - 8/13/14
 
SHARE

PRINT THIS DATA

[ ← Previous Day ]
WEATHER ALMANAC - JANUARY 31, 2013
[ Next Day → ]
[ °C ]   °F
Weather ElementAverageHighLow
Temperature37.6 °F46.9 °F (4:53 pm)30.9 °F (1:53 am)
Dewpoint32.3 °F37 °F (12:53 pm)28.9 °F (1:53 am)
Humidity82.3 %92 % (1:53 am)61 % (4:53 pm)
Barometer30.34 in30.38 in (9:53 am)30.29 in (10:53 pm)
Wind Speed2.4 mph5.8 mph (9:53 pm)
Weather ElementAverage
Visibility10 mi
Wind DirectionESE (102.6 °)

Weather ElementTotal
Precipitation---
Heating Degree Days26.1 (Base 65)
Averaged from 23 records on January 31, 2013
WEATHER CONDITIONS BREAKOUT
WIND DIRECTION BREAKOUT
WEATHER BY HOUR - JANUARY 31, 2013
[ °C ]   °F
Local TimeTemperatureDewpointHumidityBarometerVisibilityWind DirectionWind SpeedGust SpeedPrecipitationEventsConditions
1:53 AM30.9 °F28.9 °F92 %30.35 in10.0 miSW (230°)4.6 mphClear
2:53 AM33.1 °F30.0 °F89 %30.37 in10.0 miNE (50°)4.6 mphOvercast
3:53 AM32.0 °F30.0 °F92 %30.36 in10.0 miSE (130°)4.6 mphMostly Cloudy
4:53 AM32.0 °F30.0 °F92 %30.35 in10.0 miSE (130°)3.5 mphMostly Cloudy
5:53 AM32.0 °F30.0 °F92 %30.36 in10.0 miESE (110°)3.5 mphOvercast
6:53 AM33.1 °F30.9 °F92 %30.36 in10.0 miCalmOvercast
7:53 AM35.1 °F32.0 °F89 %30.37 in10.0 miESE (110°)3.5 mphOvercast
8:53 AM35.1 °F32.0 °F89 %30.37 in10.0 miCalmOvercast
9:53 AM36.0 °F33.1 °F89 %30.38 in10.0 miSE (130°)3.5 mphOvercast
10:53 AM39.0 °F35.1 °F86 %30.38 in10.0 miSE (130°)3.5 mphOvercast
11:53 AM43.0 °F36.0 °F76 %30.37 in10.0 miCalmOvercast
12:53 PM43.0 °F37.0 °F80 %30.35 in10.0 miCalmOvercast
1:53 PM45.0 °F34.0 °F65 %30.34 in10.0 miNorth (350°)4.6 mphOvercast
2:53 PM46.0 °F34.0 °F63 %30.32 in10.0 miNorth (360°)4.6 mphOvercast
3:53 PM46.0 °F34.0 °F63 %30.31 in10.0 miNorth (360°)4.6 mphClear
4:53 PM46.9 °F34.0 °F61 %30.30 in10.0 miCalmClear
5:53 PM45.0 °F34.0 °F65 %30.30 in10.0 miCalmClear
6:53 PM39.9 °F33.1 °F77 %30.31 in10.0 miCalmPartly Cloudy
7:53 PM34.0 °F30.0 °F85 %30.31 in10.0 miCalmScattered Clouds
8:53 PM36.0 °F32.0 °F86 %30.30 in10.0 miCalmScattered Clouds
9:53 PM35.1 °F32.0 °F89 %30.30 in10.0 miESE (120°)5.8 mphScattered Clouds
10:53 PM34.0 °F30.9 °F89 %30.29 in10.0 miSSE (150°)3.5 mphMostly Cloudy
11:53 PM33.1 °F30.9 °F92 %30.29 in10.0 miCalmMostly Cloudy
Hourly data recorded from KBOI, located miles away from Deer Point, Idaho







STORIES FROM OUR PARTNERS